Stations météo

réclame
Mon MeteoGroup
Arvidsjaur, Suède (2149): Température de l'air & dewpoint: 18.01.2018 10:00:00 - 24.01.2018 10:00:00 (CET)Arvidsjaur, Suède (2149): Vitesse du vent & gusts: 18.01.2018 10:00:00 - 24.01.2018 10:00:00 (CET)Arvidsjaur, Suède (2149): Direction du vent: 18.01.2018 10:00:00 - 24.01.2018 10:00:00 (CET)Arvidsjaur, Suède (2149): reduced air pressure: 18.01.2018 10:00:00 - 24.01.2018 10:00:00 (CET)Arvidsjaur, Suède (2149): visibility: 18.01.2018 10:00:00 - 24.01.2018 10:00:00 (CET)Arvidsjaur, Suède (2149): Quantités de précipitations: 18.01.2018 10:00:00 - 24.01.2018 10:00:00 (CET)
Date & Time tt [°C] td [°C] ff [km/h] ff [knt] fx [km/h] fx [knt] dd ppp [hPa] vv [km] rr [mm]
24.01.2018 10:00:00 -14,0 -15,6 0 0 5 3 N 994,8 0,8 0,3
24.01.2018 09:00:00 -13,0 -14,4 0 0 3 2 N 995,3 0,8 0,5
24.01.2018 08:00:00 -13,6 -15,0 0 0 3 1 N 996,4 1,1 0,3
24.01.2018 07:00:00 -14,1 -15,7 0 0 3 1 N 997,4 1,0 0,3
24.01.2018 06:00:00 -14,6 -16,1 0 0 3 2 N 998,5 1,2 0,4
24.01.2018 05:00:00 -14,6 -16,1 0 0 2 1 N 999,8 0,8 0,3
24.01.2018 04:00:00 -15,4 -16,9 0 0 1 1 N 1001,5 0,4 0,4
24.01.2018 03:00:00 -17,3 -19,1 0 0 2 1 N 1003,0 0,7 0,4
24.01.2018 02:00:00 -19,2 -21,2 0 0 0 0 N 1004,4 0,7 0,0
24.01.2018 01:00:00 -20,3 -22,4 0 0 0 0 N 1005,8 1,7 0,0
24.01.2018 00:00:00 -21,6 -23,8 0 0 0 0 N 1007,4 1,7 0,0
23.01.2018 23:00:00 -23,7 -26,2 0 0 0 0 N 1008,8 2,8 0,0
23.01.2018 22:00:00 -25,3 -27,9 0 0 1 1 N 1010,0 3,1 0,0
23.01.2018 21:00:00 -27,9 -30,5 0 0 2 1 N 1011,0 3,6 0,0
23.01.2018 20:00:00 -28,8 -31,6 0 0 4 2 N 1011,4 24 0,0
23.01.2018 19:00:00 -31,5 -34,9 0 0 2 1 N 1012,6 50 0,0
23.01.2018 18:00:00 -31,0 -34,2 0 0 3 1 N 1012,9 2,6 0,0
23.01.2018 17:00:00 -31,0 -34,4 0 0 0 0 N 1013,6 15 0,0
23.01.2018 16:00:00 -29,8 -32,9 0 0 0 0 N 1013,5 12 0,0
23.01.2018 15:00:00 -28,2 -31,0 0 0 1 1 N 1013,7 46 0,0
23.01.2018 14:00:00 -27,6 -30,1 0 0 0 0 N 1013,9 43 0,0
23.01.2018 13:00:00 -28,7 -32,2 0 0 0 0 N 1014,7 44 0,0
23.01.2018 12:00:00 -26,8 -29,5 0 0 0 0 N 1015,1 5 0,1
23.01.2018 11:00:00 -29,0 -31,8 0 0 1 0 N 1015,5 6 0,1
23.01.2018 10:00:00 -31,6 -34,6 0 0 0 0 N 1016,0 1,0 0,0
23.01.2018 09:00:00 -31,6 -34,7 0 0 0 0 N 1016,3 2,5 0,0
23.01.2018 08:00:00 -31,8 -34,9 0 0 0 0 N 1016,4 3,7 0,0
23.01.2018 07:00:00 -30,5 -33,5 0 0 0 0 N 1016,4 - 0,0
23.01.2018 06:00:00 -30,5 -33,5 0 0 0 0 N 1016,7 6 0,0
23.01.2018 05:00:00 -28,6 -31,4 0 0 0 0 N 1016,8 1,6 0,0
23.01.2018 04:00:00 -28,7 -31,5 0 0 1 0 N 1017,2 7 0,2
23.01.2018 03:00:00 -32,3 -35,5 0 0 0 0 N 1017,9 2,1 0,0
23.01.2018 02:00:00 -31,7 -34,5 0 0 2 1 N 1018,1 21 0,0
23.01.2018 01:00:00 -31,3 -34,1 0 0 2 1 N 1018,1 50 0,0
23.01.2018 00:00:00 -30,8 -33,8 0 0 3 1 N 1018,3 50 0,0
22.01.2018 23:00:00 -29,7 -32,6 0 0 3 1 N 1018,3 50 0,0
22.01.2018 22:00:00 -29,1 -32,1 0 0 4 2 N 1018,1 12 0,1
22.01.2018 21:00:00 -28,6 -31,4 3 2 4 2 WNW 1018,1 50 0,0
22.01.2018 20:00:00 -27,4 -30,1 3 1 4 2 WNW 1018,0 50 0,0
22.01.2018 19:00:00 -27,2 -30,0 2 1 4 2 NW 1017,8 11 0,0
22.01.2018 18:00:00 -25,9 -28,6 3 2 4 2 WNW 1017,3 50 0,0
22.01.2018 17:00:00 -24,5 -27,1 3 1 3 2 WNW 1017,2 50 0,0
22.01.2018 16:00:00 -23,6 -25,9 2 1 3 2 WNW 1016,9 50 0,0
22.01.2018 15:00:00 -22,5 -25,0 2 1 3 2 WNW 1016,7 50 0,0
22.01.2018 14:00:00 -21,6 -24,4 2 1 3 2 WNW 1016,5 50 0,0
22.01.2018 13:00:00 -20,1 -22,7 0 0 2 1 N 1016,1 1,4 0,0
22.01.2018 12:00:00 -20,3 -23,0 0 0 2 1 N 1016,1 4,4 0,2
22.01.2018 11:00:00 -20,0 -22,4 0 0 4 2 N 1016,2 6 0,0
22.01.2018 10:00:00 -19,8 -21,9 3 2 4 2 WNW 1015,9 8 0,0
22.01.2018 09:00:00 -19,3 -21,3 3 2 4 2 WNW 1015,5 7 0,0
22.01.2018 08:00:00 -19,7 -21,8 0 0 4 2 N 1015,4 5 0,0
22.01.2018 07:00:00 -19,8 -21,8 3 2 4 2 WNW 1015,5 7 0,0
22.01.2018 06:00:00 -19,3 -21,5 3 1 4 2 WNW 1015,3 4,5 0,0
22.01.2018 05:00:00 -18,9 -20,9 2 1 3 2 NW 1015,7 3,2 0,0
22.01.2018 04:00:00 -19,2 -21,2 0 0 4 2 N 1015,6 4,5 0,0
22.01.2018 03:00:00 -19,4 -21,4 3 1 4 2 NW 1015,5 19 0,0
22.01.2018 02:00:00 -18,5 -20,5 3 2 4 2 WNW 1015,6 9 0,0
22.01.2018 01:00:00 -18,2 -20,1 2 1 3 2 WNW 1015,6 3,9 0,0
22.01.2018 00:00:00 -17,9 -19,8 2 1 3 1 WNW 1015,7 4,1 0,0
21.01.2018 23:00:00 -17,6 -19,5 2 1 3 2 WNW 1015,7 5 0,0
21.01.2018 22:00:00 -17,5 -19,4 3 1 3 2 WNW 1015,7 4,8 0,0
21.01.2018 21:00:00 -17,2 -19,1 2 1 3 2 WNW 1015,4 8 0,0
21.01.2018 20:00:00 -17,1 -18,9 0 0 3 1 N 1015,5 3,9 0,0
21.01.2018 19:00:00 -17,2 -19,0 0 0 3 2 N 1015,4 4,4 0,0
21.01.2018 18:00:00 -17,4 -19,3 0 0 3 2 N 1015,3 8 0,0
21.01.2018 17:00:00 -17,4 -19,2 0 0 4 2 N 1015,2 30 0,0
21.01.2018 16:00:00 -16,0 -17,8 0 0 1 1 N 1014,8 3,0 0,0
21.01.2018 15:00:00 -14,8 -16,6 0 0 2 1 N 1014,6 2,2 0,0
21.01.2018 14:00:00 -13,8 -15,2 0 0 3 1 N 1014,3 2,8 0,0
21.01.2018 13:00:00 -13,8 -15,5 0 0 2 1 N 1014,0 2,7 0,0
21.01.2018 12:00:00 -13,3 -14,9 0 0 0 0 N 1013,9 3,5 0,0
21.01.2018 11:00:00 -13,1 -14,5 0 0 0 0 N 1013,9 2,1 0,0
21.01.2018 10:00:00 -13,2 -14,6 0 0 0 0 N 1013,8 4,8 0,0
21.01.2018 09:00:00 -13,3 -14,7 0 0 0 0 N 1013,3 7 0,0
21.01.2018 08:00:00 -13,5 -14,9 0 0 0 0 N 1013,3 5 0,0
21.01.2018 07:00:00 -13,6 -15,0 0 0 0 0 N 1013,1 8 0,0
21.01.2018 06:00:00 -13,7 -15,1 0 0 0 0 N 1012,9 8 0,0
21.01.2018 05:00:00 -13,7 -15,3 0 0 0 0 N 1013,0 6 0,0
21.01.2018 04:00:00 -13,8 -15,2 0 0 1 0 N 1012,8 3,6 0,0
21.01.2018 03:00:00 -13,7 -15,3 0 0 0 0 N 1012,7 6 0,0
21.01.2018 02:00:00 -13,6 -15,0 0 0 2 1 N 1012,6 1,1 0,0
21.01.2018 01:00:00 -13,8 -15,2 0 0 4 2 N 1012,7 3,5 0,0
21.01.2018 00:00:00 -13,9 -15,5 0 0 2 1 N 1012,8 0,9 0,0
20.01.2018 23:00:00 -14,0 -15,6 0 0 3 1 N 1012,6 4,2 0,0
20.01.2018 22:00:00 -14,1 -15,7 0 0 5 3 N 1012,7 6 0,0
20.01.2018 21:00:00 -13,9 -15,5 0 0 3 2 N 1012,5 4,7 0,0
20.01.2018 20:00:00 -13,7 -15,3 0 0 3 2 N 1012,3 8 0,0
20.01.2018 19:00:00 -13,7 -15,3 0 0 3 2 N 1012,1 6 0,0
20.01.2018 18:00:00 -13,7 -15,3 0 0 3 2 N 1011,9 15 0,0
20.01.2018 17:00:00 -13,5 -15,1 2 1 4 2 NE 1011,7 6 0,0
20.01.2018 16:00:00 -13,0 -14,6 0 0 3 2 N 1011,6 8 0,0
20.01.2018 15:00:00 -12,8 -14,2 0 0 3 2 N 1011,5 3,9 0,0
20.01.2018 14:00:00 -12,6 -14,2 2 1 3 2 ENE 1011,2 5 0,0
20.01.2018 13:00:00 -12,4 -13,8 0 0 3 2 N 1011,1 4,5 0,0
20.01.2018 12:00:00 -12,2 -13,6 2 1 3 2 ENE 1011,2 2,5 0,0
20.01.2018 11:00:00 -12,2 -13,6 0 0 1 1 N 1011,5 4,2 0,2
20.01.2018 10:00:00 -12,7 -14,1 0 0 1 0 N 1011,4 3,0 0,1
20.01.2018 09:00:00 -13,3 -14,7 0 0 0 0 N 1011,1 1,8 0,1
20.01.2018 08:00:00 -13,5 -15,1 0 0 0 0 N 1010,7 1,5 0,2
20.01.2018 07:00:00 -13,8 -15,2 0 0 1 1 N 1010,6 1,9 0,0
20.01.2018 06:00:00 -14,2 -15,7 0 0 3 1 N 1010,5 1,5 0,1
20.01.2018 05:00:00 -14,4 -15,9 2 1 3 2 ESE 1010,6 1,3 0,1
20.01.2018 04:00:00 -14,7 -16,2 2 1 3 2 ESE 1010,5 1,7 0,0
20.01.2018 03:00:00 -14,9 -16,6 0 0 3 1 N 1010,5 1,3 0,0
20.01.2018 02:00:00 -15,3 -17,0 0 0 4 2 N 1010,4 0,7 0,0
20.01.2018 01:00:00 -16,0 -17,6 0 0 4 2 N 1010,5 1,2 0,0
20.01.2018 00:00:00 -16,4 -18,1 2 1 3 2 S 1010,4 2,1 0,0
19.01.2018 23:00:00 -17,0 -18,8 0 0 4 2 N 1010,0 1,8 0,0
19.01.2018 22:00:00 -17,7 -19,6 0 0 3 2 N 1009,8 2,5 0,1
19.01.2018 21:00:00 -18,3 -20,1 0 0 3 2 N 1009,6 1,5 0,1
19.01.2018 20:00:00 -19,8 -21,8 0 0 3 1 N 1009,3 2,0 0,0
19.01.2018 19:00:00 -20,4 -22,4 3 1 3 2 NW 1009,0 1,9 0,0
19.01.2018 18:00:00 -20,1 -22,2 0 0 3 1 N 1008,8 4,1 0,0
19.01.2018 17:00:00 -18,5 -20,4 0 0 4 2 N 1008,6 2,0 0,1
19.01.2018 16:00:00 -18,8 -20,8 3 2 5 3 WNW 1008,1 3,0 0,0
19.01.2018 15:00:00 -17,7 -19,6 2 1 11 6 W 1007,6 3,6 0,0
19.01.2018 14:00:00 -18,3 -20,3 3 2 5 3 WNW 1007,3 3,8 0,0
19.01.2018 13:00:00 -17,1 -18,9 5 3 6 3 WNW 1006,8 4,3 0,1
19.01.2018 12:00:00 -18,1 -20,1 4 2 4 2 NW 1006,7 11 0,0
19.01.2018 11:00:00 -17,5 -19,3 4 2 5 3 NW 1006,4 4,0 0,0
19.01.2018 10:00:00 -17,1 -18,9 4 2 5 3 W 1006,2 6 0,0
19.01.2018 09:00:00 -16,4 -18,2 3 2 6 3 NW 1005,6 2,9 0,2
19.01.2018 08:00:00 -16,0 -17,7 4 2 5 3 WNW 1005,2 3,3 0,0
19.01.2018 07:00:00 -15,6 -17,1 4 2 5 3 NW 1004,7 1,6 0,1
19.01.2018 06:00:00 -15,4 -17,1 4 2 6 3 NW 1004,4 1,7 0,0
19.01.2018 05:00:00 -14,9 -16,4 4 2 5 3 WNW 1004,1 1,9 0,1
19.01.2018 04:00:00 -15,5 -17,0 4 2 6 4 WNW 1004,1 2,7 0,0
19.01.2018 03:00:00 -16,0 -17,7 5 3 8 4 WNW 1004,1 4,0 0,0
19.01.2018 02:00:00 -15,1 -16,5 5 3 8 4 NW 1003,9 1,9 0,0
19.01.2018 01:00:00 -13,9 -15,5 5 3 7 4 NW 1003,7 2,2 0,0
19.01.2018 00:00:00 -13,4 -14,8 3 2 7 4 NNW 1003,6 1,3 0,0
18.01.2018 23:00:00 -13,5 -14,9 5 3 7 4 NW 1003,8 1,6 0,0
18.01.2018 22:00:00 -13,8 -15,2 4 2 9 5 NW 1003,7 1,7 0,0
18.01.2018 21:00:00 -13,7 -15,1 5 3 6 4 NNW 1003,7 1,1 0,0
18.01.2018 20:00:00 -14,0 -15,6 5 3 6 3 NNW 1003,5 2,9 0,0
18.01.2018 19:00:00 -13,9 -15,5 4 2 7 4 NW 1003,3 1,2 0,0
18.01.2018 18:00:00 -14,2 -15,9 4 2 7 4 N 1003,3 3,4 0,0
18.01.2018 17:00:00 -14,2 -16,0 4 2 9 5 NNE 1003,3 9 0,0
18.01.2018 16:00:00 -13,5 -15,2 3 1 5 3 N 1003,3 2,6 0,0
18.01.2018 15:00:00 -13,5 -15,2 3 2 8 5 N 1003,2 3,6 0,0
18.01.2018 14:00:00 -13,3 -15,0 3 2 7 4 NNE 1003,2 6 0,0
18.01.2018 13:00:00 -12,9 -14,5 3 2 5 3 NNE 1002,9 2,3 0,0
18.01.2018 12:00:00 -12,8 -14,5 0 0 9 5 N 1003,1 2,3 0,0
18.01.2018 11:00:00 -12,3 -13,7 9 5 13 7 E 1003,1 8 0,0
18.01.2018 10:00:00 -12,0 -13,4 6 3 9 5 ENE 1003,0 3,7 0,0

tt = Température de l'air
td = dewpoint
ff = Vitesse du vent
fx = gusts
dd = Direction du vent
ppp = reduced air pressure
vv = visibility
rr = Quantités de précipitations

stations d'obs. à proximité